www.pogodaiklimat.ru
Время
и дата
10:55 30.12
11:55 30.12
12:55 30.12
13:55 30.12
14:42 30.12
14:47 30.12
14:55 30.12
15:06 30.12
15:28 30.12
15:55 30.12
16:55 30.12
17:55 30.12
18:55 30.12
19:55 30.12
20:55 30.12
21:55 30.12
22:55 30.12
23:55 30.12
00:55 31.12
01:55 31.12
02:55 31.12
03:55 31.12
04:53 31.12
04:55 31.12
05:37 31.12
05:55 31.12
06:43 31.12
06:55 31.12
07:39 31.12
07:55 31.12
08:06 31.12
08:15 31.12
08:50 31.12
08:55 31.12
09:36 31.12
09:55 31.12
10:55 31.12
11:12 31.12
11:55 31.12
12:55 31.12
13:29 31.12
13:55 31.12
14:30 31.12
14:55 31.12
15:55 31.12
16:55 31.12
17:55 31.12
18:06 31.01
Ветер
(напр.,м/с)
Видим. Явления Облачность Т
(С)
Тd
(С)
f
(%)
Тe
(С)
Тes
(С)
Комфортность P
(гПа)
Po
(гПа)
Тmin
(С)
Tmax
(С)
R
(мм)
R24
(мм)
S
(см)
штиль 0 16 км 10/0 2250 м
[Ac]
-5.6 -9.4 75 -6 -6 1015.9 989.8
штиль 0 16 км 10/0 2100 м
[Ac]
-4.4 -8.9 71 -5 -4 1014.8 988.8
штиль 0 16 км 10/10 1950 м -3.3 -8.9 65 -4 -4 1013.9 987.8 -8.3 -3.3
штиль 0 10 км слабый снег 10/10 1320 м -3.9 -8.9 68 -5 -5 1013.4 987.4
штиль 0 3 км слабый снег 10/10 900 м -3.9 -8.3 71 -5 -5 987.1
ЮВ 1 2 км слабый снег 10/10 840 м -3.9 -8.3 71 -8 -8 987.4
ЮВ 1 2 км слабый снег 10/10 900 м -3.9 -8.3 71 -8 -8 1013.3 987.4
ЮВ 1 4 км слабый снег 10/10 1050 м -3.9 -8.3 71 -8 -8 987.1
ЮВ 1 6 км слабый снег 10/10 1260 м -3.9 -7.8 74 -9 -9 987.1
ЮВ 1 8 км слабый снег 10/10 1650 м -3.9 -7.8 74 -9 -9 1012.7 986.8
ЮВ 1 16 км 10/0 2400 м
[Ac]
-3.9 -7.8 74 -8 -8 1012.7 986.8
16 км 10/2 300 м
[Ac]
-3.9 -7.2 78 -5 -5 1012.3 986.1
ЮВ 1 16 км 10/8 1800 м
[Ac]
-3.9 -7.2 78 -9 -9 1011.8 985.8 -4.4 -3.3
В 1 16 км 5/2 750 м
[Ac]
-4.4 -7.2 81 -10 -10 1011.7 985.8
В 1 16 км 8/0 3300 м
[Ac]
-3.9 -7.2 78 -9 -9 1010.9 984.8
В 1 16 км 5/0 3300 м
[Ac]
-4.4 -7.2 81 -10 -10 1010.2 984.1
В 1 16 км 10/10 600 м -3.9 -6.7 81 -8 -8 1009.9 984.1
ЮВ 1 16 км 10/8 1800 м
[Ac]
-3.3 -6.1 81 -7 -7 1008.9 983.2
ЮВ 1 16 км 10/10 1140 м -2.8 -5.6 81 -7 -7 1008.7 983.2 -4.4 -2.8
ЮВ 1 16 км 10/10 1320 м -2.2 -5.6 77 -7 -7 1007.9 982.2
ЮВ 1 16 км 10/10 1080 м -1.7 -5.0 78 -5 -5 1008.1 982.5
ЮВ 1 16 км 10/10 960 м -1.7 -5.0 78 -7 -7 1007.1 981.5
штиль 0 16 км 10/10 720 м -1.0 -5.0 74 -2 -2 981.2
штиль 0 16 км 10/10 720 м -1.1 -5.0 75 -2 -2 1007.0 981.2
В 1 16 км 10/10 570 м -1.1 -4.4 78 -5 -5 980.8
В 1 16 км 10/10 1140 м -1.7 -4.4 82 -6 -6 1006.4 980.8
Ю 1 16 км 10/10 540 м -1.1 -4.4 78 -5 -5 980.8
штиль 0 14 км 10/10 600 м -1.1 -4.4 78 -2 -2 1006.4 980.8 -2.8 -1.1
штиль 0 16 км 10/10 480 м -1.1 -3.9 81 -2 -2 980.2
штиль 0 16 км 10/10 510 м -1.1 -3.9 81 -2 -2 1006.5 980.8
ЮЗ 1 13 км 10/10 270 м -1.1 -3.3 85 -5 -5 981.2
СЗ 1 5 км слабый снег 10/10 210 м -1.1 -3.9 81 -5 -5 981.2
З 1 11 км 10/10 180 м -1.0 -3.0 86 -5 -5 981.2
З 1 11 км 10/10 180 м -1.1 -3.3 85 -5 -5 1007.1 981.5
З 1 16 км 10/10 360 м -0.6 -3.3 82 -5 -5 981.8
З 1 16 км 10/10 690 м -0.6 -3.3 82 -5 -5 1007.5 981.8
З 1 16 км 8/8 750 м 0.0 -5.0 69 -4 -4 1007.6 981.8
ЮЗ 2 16 км 8/8 870 м 0.0 -5.0 69 -5 -5 982.2
З 1 16 км 10/10 630 м 0.0 -5.0 69 -4 -4 1007.7 982.2
З 2 16 км 10/10 510 м +0.6 -5.0 66 -4 -4 1007.6 981.8 -1.1 +0.6
З 2 16 км 5/5 630 м +0.6 -5.6 63 -4 -3 981.8
З 2 16 км ясно +0.6 -5.6 63 -4 -2 1007.4 981.8
З 1 16 км 8/8 690 м +0.6 -5.6 63 -4 -3 981.8
З 1 16 км 10/10 810 м +0.6 -6.1 61 -3 -3 1007.6 981.8
З 1 16 км 10/10 810 м 0.0 -6.7 61 -4 -4 1008.0 982.5
З 1 16 км 10/8 900 м
[Ac]
0.0 -6.7 61 -4 -4 1008.3 982.8
З 1 16 км 10/10 900 м -0.6 -6.7 63 -4 -4 1008.2 982.5
СЗ 1 16 км 10/10 870 м -0.6 -6.7 63 -4 -4 982.5
Местоположение метеостанции Sault Ste. Marie Municipal Airport: широта 46.4794 долгота -84.3572 высота над уровнем моря 210 м.
В архиве по умолчанию представлена погода в Су-Сент-Мари за последние 1-2 суток. Обновление информации о фактической погоде в базе происходит ежечасно! Архивные данные за месяц целиком и за предыдущие месяцы Вы можете получить, выбрав интересующий диапазон дат из раскрывающегося списка и нажав кнопку "Ввод!".
Внимание! Архив погоды МЕТАР в базе сайта по станциям, не включенным в климатический монитор, хранится не более 60 дней. Нет смысла пытаться выбрать более раннюю дату.
*Определитесь, кто Вы:
Внимание! Время в таблицах - местное (без учета летнего времени). Для получения всемирного времени необходимо вычесть поправку, которая равна -5 ч.
Смотрите также архив погоды в соседних городах и на ближайших метеорологических станциях:
Партнеры нашего сайта:      
Пояснения к столбцам:
  • Ветер - указаны скорость ветра в м/с - средняя за 10 мин, порывы в срок и между сроками (в фигурных скобках) и направление, откуда дует ветер: С - северный,
  • СВ - северо-восточный, В - восточный, ЮВ - юго-восточный, Ю - южный, ЮЗ - юго-западный, З - западный, СЗ - северо-западный.
  • Видимость - горизонтальная дальность видимости в метрах или километрах. При видимости от 1 до 10 км при отсутствии осадков обычно наблюдается дымка, при ухудшении видимости до 1 км и менее - туман. В сухую погоду видимость может ухудшаться дымом, пылью или мглою.
  • Явления - указаны атмосферные явления, наблюдавшиеся в срок или в последний час перед сроком; фигурными скобками обозначены явления, наблюдавшиеся между сроками (за 1-3 часа до срока); квадратными скобками обозначены град или гололедные отложения с указанием их диаметра в мм.
  • Облачность - указаны через наклонную черту общая и нижняя облачность в баллах и высота нижней границы облаков в метрах; квадратными скобками обозначены формы облаков: Ci - перистые, Cs - перисто-слоистые, Cc - перисто-кучевые, Ac - высококучевые, As - высокослоистые, Sc - слоисто-кучевые, Ns - слоисто-дождевые, Cu - кучевые, Cb - кучево-дождевые. Подробнее классификацию облаков см. в Атласе облаков (PDF).
  • T - Температура воздуха - температура, измеренная на высоте 2 м над землей.
  • Td - Температура точки росы - температура, при понижении до которой содержащийся в воздухе водяной пар достигнет насыщения.
  • f - Относительная влажность воздуха - влажноcть воздуха, измеренная на высоте 2 м над землей.
  • Te - Эффективная температура - температура, которую ощущает одетый по сезону человек в тени. Характеристика душности погоды. При расчете учитывается влияние влажности воздуха и скорости ветра на теплоощущения человека.
  • Tes - Эффективная температура на солнце - температура, которую ощущает человек, с поправкой на солнечный нагрев. Характеристика знойности погоды. Зависит от высоты солнца над горизонтом, облачности и скорости ветра. Ночью, в пасмурную погоду, а также при ветре 12 м/с и более поправка равна нулю.
  • P - Атмосферное давление - приведенное к уровню моря атмосферное давление.
  • Po - Атмосферное давление - измеренное на уровне метеостанции атмосферное давление.
  • Tmin - Минимальная температура - минимум температуры воздуха на высоте 2 м над землей.
  • Tmax - Максимальная температура - максимум температуры воздуха на высоте 2 м над землей.
  • R - Количество осадков - Количество выпавших осадков за период времени, мм. При наведении курсора мыши на число - период времени, за который выпало указанное количество осадков.
  • R24 - Количество осадков - Количество выпавших осадков за 24 часа, мм.
  • S - Снежный покров - Высота снежного покрова, см. При наведении курсора мыши на число - состояние снежного покрова и степень покрытия местности в баллах.